Weather History for KOTH - February, 2013

Change the Weather History Date:

Tuesday, February 5, 2013

  Actual Average Record
Temperature  
Mean Temperature 49 °F 46 °F  
Max Temperature 55 °F 52 °F 68 °F (1926)
Min Temperature 43 °F 40 °F 14 °F (1989)
Degree Days  
Heating Degree Days 16 19  
Month to date heating degree days 84 95  
Since 1 July heating degree days 2591 2750  
Cooling Degree Days 0 0  
Month to date cooling degree days 0 0  
Year to date cooling degree days 0 0  
Moisture  
Dew Point 45 °F    
Average Humidity 89    
Maximum Humidity 100    
Minimum Humidity 77    
Precipitation  
Precipitation 0.14 in 0.28 in 1.41 in (1953)
Month to date precipitation 0.14 1.39  
Year to date precipitation 4.09 11.58  
Sea Level Pressure  
Sea Level Pressure 30.05 in    
Wind  
Wind Speed 10 mph (South)    
Max Wind Speed 16 mph    
Max Gust Speed 25 mph    
Visibility 10 miles    
Events      
T = Trace of Precipitation, MM = Missing Value Source: NWS Daily Summary

Daily Weather History Graph

Daily Weather History Graph

Search for Another Location

Airport or City:

Trip Planner

Search our weather history database for the weather conditions in past years. The results will help you decide how hot, cold, wet, or windy it might be!

Date:

Astronomy

Feb. 05, 2013 Rise Set
Actual Time 7:27 AM PST 5:34 PM PST
Civil Twilight 6:57 AM PST 6:04 PM PST
Nautical Twilight 6:24 AM PST 6:38 PM PST
Astronomical Twilight 5:50 AM PST 7:12 PM PST
Moon 3:19 AM PST (2/5) 12:54 PM PST (2/5)
Length of Visible Light 11h 06m
Length of Day
10h 06m
Waning Crescent, 25% of the Moon is Illuminated
Feb 5
Waning Crescent
Feb 9
New
Feb 17
First Quarter
Feb 25
Full
Mar 4
Last Quarter

Hourly Weather History & Observations

Time (PST) Temp. Windchill Dew Point Humidity Pressure Visibility Wind Dir Wind Speed Gust Speed Precip Events Conditions
12:15 AM 48.2 °F - 42.8 °F 82% 30.05 in 10.0 mi South 9.2 mph - N/A   Overcast
12:35 AM 48.2 °F - 42.8 °F 82% 30.04 in 10.0 mi South 12.7 mph 18.4 mph N/A   Overcast
12:55 AM 48.2 °F - 42.8 °F 82% 30.04 in 10.0 mi South 8.1 mph - N/A   Overcast
1:15 AM 48.2 °F - 42.8 °F 82% 30.02 in 10.0 mi South 12.7 mph - N/A   Overcast
1:35 AM 48.2 °F - 42.8 °F 82% 30.02 in 10.0 mi SSE 12.7 mph 17.3 mph N/A   Overcast
1:55 AM 48.2 °F - 42.8 °F 82% 30.02 in 10.0 mi SSE 10.4 mph - N/A   Overcast
2:15 AM 48.2 °F - 42.8 °F 82% 30.02 in 10.0 mi SE 9.2 mph - N/A   Overcast
2:35 AM 46.4 °F 40.7 °F 42.8 °F 87% 30.01 in 10.0 mi SE 12.7 mph 16.1 mph N/A   Overcast
2:55 AM 48.2 °F - 42.8 °F 82% 30.00 in 10.0 mi SE 10.4 mph - N/A   Overcast
3:15 AM 48.2 °F - 42.8 °F 82% 30.00 in 10.0 mi SSE 9.2 mph - N/A   Overcast
3:35 AM 48.2 °F - 42.8 °F 82% 29.99 in 10.0 mi SSE 9.2 mph - N/A   Overcast
3:55 AM 48.2 °F - 42.8 °F 82% 29.99 in 10.0 mi SSE 9.2 mph - N/A   Overcast
4:15 AM 48.2 °F - 42.8 °F 82% 29.99 in 9.0 mi South 3.5 mph - N/A   Overcast
4:35 AM 46.4 °F 45.2 °F 44.6 °F 93% 29.99 in 4.0 mi SSE 3.5 mph - N/A   Overcast
4:55 AM 46.4 °F 45.2 °F 44.6 °F 93% 29.99 in 3.0 mi SSE 3.5 mph - 0.01 in   Overcast
5:35 AM 44.6 °F 39.2 °F 42.8 °F 93% 29.98 in 9.0 mi SE 10.4 mph - N/A   Overcast
5:55 AM 44.6 °F 39.7 °F 44.6 °F 100% 29.98 in 8.0 mi SSE 9.2 mph - N/A   Overcast
6:15 AM 46.4 °F 44.3 °F 44.6 °F 93% 29.99 in 10.0 mi SSE 4.6 mph - N/A   Overcast
6:35 AM 46.4 °F 45.2 °F 44.6 °F 93% 29.99 in 10.0 mi SSW 3.5 mph - N/A   Overcast
6:55 AM 46.4 °F 41.9 °F 46.4 °F 100% 30.00 in 10.0 mi South 9.2 mph - 0.01 in   Overcast
7:15 AM 46.4 °F 40.7 °F 46.4 °F 100% 30.00 in 10.0 mi South 12.7 mph 17.3 mph N/A   Overcast
7:35 AM 48.2 °F - 46.4 °F 93% 30.00 in 10.0 mi SSW 15.0 mph 19.6 mph N/A   Mostly Cloudy
7:55 AM 48.2 °F - 46.4 °F 93% 30.01 in 10.0 mi SSW 15.0 mph 18.4 mph N/A   Overcast
8:15 AM 48.2 °F - 46.4 °F 93% 30.01 in 10.0 mi South 12.7 mph 18.4 mph N/A   Mostly Cloudy
8:35 AM 48.2 °F - 46.4 °F 93% 30.02 in 10.0 mi SSW 11.5 mph - N/A   Mostly Cloudy
8:55 AM 48.2 °F - 46.4 °F 93% 30.02 in 10.0 mi SSW 12.7 mph 18.4 mph N/A   Mostly Cloudy
9:15 AM 48.2 °F - 46.4 °F 93% 30.03 in 10.0 mi South 10.4 mph 16.1 mph N/A   Overcast
9:35 AM 48.2 °F - 46.4 °F 93% 30.03 in 10.0 mi South 10.4 mph 19.6 mph N/A   Mostly Cloudy
9:55 AM 50.0 °F - 46.4 °F 87% 30.03 in 10.0 mi South 11.5 mph - N/A   Mostly Cloudy
10:15 AM 51.8 °F - 48.2 °F 88% 30.03 in 10.0 mi South 15.0 mph - N/A   Mostly Cloudy
10:35 AM 51.8 °F - 48.2 °F 88% 30.04 in 10.0 mi South 13.8 mph 20.7 mph N/A   Overcast
10:55 AM 51.8 °F - 48.2 °F 88% 30.04 in 10.0 mi SSW 12.7 mph - N/A   Overcast
11:15 AM 51.8 °F - 48.2 °F 88% 30.04 in 10.0 mi SSW 12.7 mph 21.9 mph N/A   Overcast
11:35 AM 51.8 °F - 48.2 °F 88% 30.04 in 10.0 mi SSW 16.1 mph 25.3 mph N/A   Mostly Cloudy
11:55 AM 53.6 °F - 48.2 °F 82% 30.04 in 10.0 mi SSW 16.1 mph 24.2 mph N/A   Scattered Clouds
12:15 PM 53.6 °F - 48.2 °F 82% 30.04 in 10.0 mi SSW 17.3 mph 24.2 mph N/A   Mostly Cloudy
12:35 PM 53.6 °F - 48.2 °F 82% 30.04 in 10.0 mi SW 11.5 mph 16.1 mph N/A   Mostly Cloudy
12:55 PM 53.6 °F - 48.2 °F 82% 30.04 in 10.0 mi SSW 15.0 mph 25.3 mph N/A   Mostly Cloudy
1:15 PM 53.6 °F - 46.4 °F 77% 30.04 in 10.0 mi SW 13.8 mph 19.6 mph N/A   Overcast
1:35 PM 53.6 °F - 46.4 °F 77% 30.04 in 10.0 mi SW 10.4 mph 19.6 mph N/A   Mostly Cloudy
1:55 PM 53.6 °F - 46.4 °F 77% 30.03 in 10.0 mi SW 13.8 mph 21.9 mph N/A   Scattered Clouds
2:15 PM 53.6 °F - 44.6 °F 72% 30.04 in 10.0 mi SW 10.4 mph 20.7 mph N/A   Mostly Cloudy
2:35 PM 53.6 °F - 44.6 °F 72% 30.04 in 10.0 mi SW 15.0 mph 21.9 mph N/A   Overcast
2:55 PM 53.6 °F - 46.4 °F 77% 30.04 in 10.0 mi SSW 13.8 mph 23.0 mph N/A   Overcast
3:15 PM 53.6 °F - 46.4 °F 77% 30.05 in 10.0 mi SSW 12.7 mph 18.4 mph N/A   Overcast
3:35 PM 51.8 °F - 46.4 °F 82% 30.04 in 10.0 mi SW 12.7 mph 18.4 mph N/A   Overcast
3:55 PM 50.0 °F - 46.4 °F 87% 30.05 in 4.0 mi SW 12.7 mph 23.0 mph 0.04 in   Overcast
4:15 PM 50.0 °F - 48.2 °F 94% 30.06 in 10.0 mi SSW 10.4 mph 16.1 mph 0.02 in   Mostly Cloudy
4:35 PM 48.2 °F - 46.4 °F 93% 30.06 in 10.0 mi SSW 11.5 mph - 0.02 in   Overcast
4:55 PM 48.2 °F - 46.4 °F 93% 30.07 in 10.0 mi SSW 8.1 mph - 0.02 in   Overcast
5:15 PM 48.2 °F - 46.4 °F 93% 30.07 in 10.0 mi SSW 8.1 mph - N/A   Overcast
5:35 PM 50.0 °F - 48.2 °F 94% 30.07 in 10.0 mi SW 8.1 mph 18.4 mph N/A   Overcast
5:55 PM 48.2 °F - 46.4 °F 93% 30.08 in 10.0 mi SW 6.9 mph - N/A   Mostly Cloudy
6:15 PM 48.2 °F - 46.4 °F 93% 30.08 in 10.0 mi SSW 6.9 mph - N/A   Partly Cloudy
6:35 PM 48.2 °F - 46.4 °F 93% 30.09 in 10.0 mi SSW 6.9 mph - N/A   Partly Cloudy
7:15 PM 48.2 °F - 46.4 °F 93% 30.10 in 10.0 mi South 6.9 mph - N/A   Mostly Cloudy
7:35 PM 48.2 °F - 46.4 °F 93% 30.11 in 10.0 mi South 6.9 mph - N/A   Overcast
7:55 PM 48.2 °F - 46.4 °F 93% 30.11 in 10.0 mi South 8.1 mph - N/A   Overcast
8:15 PM 48.2 °F - 46.4 °F 93% 30.11 in 9.0 mi South 6.9 mph - N/A   Mostly Cloudy
8:35 PM 48.2 °F - 46.4 °F 93% 30.12 in 7.0 mi SSW 8.1 mph - 0.02 in   Overcast
8:55 PM 46.4 °F 41.5 °F 44.6 °F 93% 30.12 in 10.0 mi SSW 10.4 mph 18.4 mph 0.04 in   Mostly Cloudy
9:15 PM 46.4 °F 43.5 °F 44.6 °F 93% 30.12 in 10.0 mi South 5.8 mph - N/A   Overcast
9:35 PM 46.4 °F 43.5 °F 44.6 °F 93% 30.12 in 10.0 mi South 5.8 mph - N/A   Overcast
9:55 PM 44.6 °F 41.4 °F 42.8 °F 93% 30.13 in 10.0 mi SSE 5.8 mph - N/A   Mostly Cloudy
10:15 PM 42.8 °F 39.3 °F 42.8 °F 100% 30.13 in 9.0 mi South 5.8 mph - N/A   Mostly Cloudy
10:35 PM 42.8 °F 39.3 °F 42.8 °F 100% 30.13 in 7.0 mi SSE 5.8 mph - N/A   Mostly Cloudy
11:15 PM 46.4 °F 43.5 °F 46.4 °F 100% 30.14 in 9.0 mi South 5.8 mph - N/A   Mostly Cloudy
11:35 PM 46.4 °F 42.9 °F 44.6 °F 93% 30.14 in 8.0 mi SSW 6.9 mph 16.1 mph 0.02 in   Mostly Cloudy
11:55 PM 46.4 °F 45.2 °F 44.6 °F 93% 30.15 in 10.0 mi South 3.5 mph - 0.02 in   Overcast